CZ-4C R/B, 43012

Orbit data source: Space-Track

CZ-4C R/B, 43012 is space debris in SSO originally from a launch on Tue, 14 Nov 2017 UTC via a CHANG ZHENG 4C launch vehicle from the Taiyaun Space Center, China (TSC). Debris objects in space refer to the collection of defunct objects orbiting the Earth. Examples of debris include non-operational satellites, rocket bodies, and fragments generated from explosions, collisions, or faulty payload assembly.

Loading next visibility...
Identifier
43012, 2017-072C
Orbit
SSO
Country
Flag of CNCN / PRC
Related business
Flag of CNFudan University (CN)
Manufacturer
Fudan Univ
Mission
Amateur Technology
Bus & Motor
XINYUN, Unknown motor
Mass
1,001 kg wet, 1 kg dry
Launch date (UTC)
2017-11-14 (8 years ago)
Launch vehicle
CHANG ZHENG 4C
Launch site
Taiyaun Space Center, China (TSC)
Object type
Payload
Rocket body
Debris
Shape & HBR
Cyl + Box, 1.5 m
Radar Cross Section
12.673 m², Large (>1 m²)

Expand to show TLE details & history
Last TLE update: 6 hours ago

TLE from 6 hours ago
0 CZ-4C R/B
1 43012U 17072C   26126.26829682  .00000299  00000-0  69165-4 0  9998
2 43012  98.5748 232.9040 0121287 281.1338  77.6244 14.58743715450521
Epoch: 2026-05-06T06:26Z
TLE epoch observation values (Epoch: 2026-05-06T06:26:20.845Z)
Latitude
0.00002°
Longitude
-87.81408°
Altitude
682.807 km
Speed
7.524 km/s
True Right ascension
15h 31m 36s
True Declination
0° 00' 00"
Sunlit
Object was in full shadow at epoch
Visualization orbit readout
Latitude
Unknown
Longitude
Unknown
Altitude
Unknown
Speed
Unknown
Apparent Right ascension
Unknown
Apparent Declination
Unknown
Sunlit
N/A
Visualization observer readout
Local Sidereal Time
19:55:25
Azimuth
Unknown
Elevation
Unknown
Doppler factor
Unknown
Orbital elements
Apogee altitude
780.113 km
Perigee altitude
608.553 km
Semi-major axis
7,072.47 km
Eccentricity
0.01213
Inclination
98.5748°
RAAN
232.904°
Arg. of periapsis
281.1338°
True anomaly
78.98625°
Mean anomaly
77.6244°
Eccentric anomaly
78.3049°
Mean motion
3.64911 °/min
Orbital period
98.65 mins
BSTAR
0.000069165
Loading maneuver chart data...
Computing Atmospheric mass density...
Loading historical data...
Loading historical data...
Loading historical data...
Loading historical data...
Loading historical data...
Loading historical data...
Loading historical data...
Other satellites on launch #72 in the year 2017 (2017-11-14 UTC)

Documentation

Showing up to 5 results
|